ZHONGXING-12

Last updated on Thu Jul 03 2025 00:02:46 GMT+0000 (Coordinated Universal Time)

1 39017U 12067A 25183.58395684 -.00000200 00000+0 00000+0 0 9994 2 39017 0.0354 102.3149 0002641 356.5140 119.7502 1.00272446 46002
UTC large
Height (km)
Speed (km/s)
/
Latitude / Longitude
Inclination (degrees)
Orbital Period (minutes)
Azimuth
Elevation
Range (km)
Doppler Factor

Next 0 passes for location: London (51.5072 / 0.1276)

Sorry there are no passes over London.